Regional Weather Roundup
Issued by NWS

Home | Current Version | Previous Version | Text Only | Print | Product List | Glossary Off
Versions: 1 2 3 4 5 6 7 8 9 10 11 12 13 14 15 16 17 18 19 20 21 22 23 24 25 26 27 28 29 30 31 32 33 34 35 36 37 38 39 40 41 42 43 44 45 46 47 48 49 50

000
ASUS43 KBIS 070602
RWRND

NORTH DAKOTA REGIONAL WEATHER ROUNDUP
NATIONAL WEATHER SERVICE BISMARCK ND
1200 AM CST WED DEC 07 2016

NOTE: "FAIR" INDICATES FEW OR NO CLOUDS BELOW 12,000 FEET WITH NO
SIGNIFICANT WEATHER AND/OR OBSTRUCTIONS TO VISIBILITY.


NDZ001>003-009>011-017-070700-
NORTHWEST NORTH DAKOTA

CITY           SKY/WX    TMP DP  RH WIND       PRES   REMARKS
WILLISTON      FLURRIES   3  -4  72 NW12      30.19R WCI -13
6HR MIN TEMP:   3; 6HR MAX TEMP:   4; 6HR PCP: TRACE;

MINOT          SNOW       7   3  84 W32G43    30.00R VSB 1/2 WCI -17
MINOT AFB      SNOW       6   2  84 NW35G40   29.99S VSB 1/2 WCI -19
$$

NDZ018>021-031>035-040>046-070700-
SOUTHWEST NORTH DAKOTA

CITY           SKY/WX    TMP DP  RH WIND       PRES   REMARKS
BISMARCK       MIX PCPN   5   1  83 W23G32    30.08R WCI -17
6HR MIN TEMP:   5; 6HR MAX TEMP:   7; 6HR PCP:  0.02;

DICKINSON      CLOUDY    -1  -7  75 W26G35    30.08R HAZE    WCI -26
GARRISON         N/A      4   0  83 NW30      30.03R WCI -21
6HR MIN TEMP:   4; 6HR MAX TEMP:   5;

HETTINGER ARPT CLOUDY     1  -6  72 W24       30.10R WCI -22
$$

NDZ004>008-012>016-024-026-027-054-070700-
NORTHEAST NORTH DAKOTA

CITY           SKY/WX    TMP DP  RH WIND       PRES   REMARKS
GRAND FORKS    LGT SNOW  17  12  80 W30G40    29.73R BLWGSNOWWCI  -3
GRND FRKS AFB  LGT SNOW  16  10  79 NW24G33   29.75R WCI  -3
DEVILS LAKE    LGT SNOW   9   5  84 W37G44    29.81S VSB 1   WCI -16
$$

NDZ022-023-025-028>030-036>039-047>053-070700-
SOUTHEAST NORTH DAKOTA

CITY           SKY/WX    TMP DP  RH WIND       PRES   REMARKS
FARGO          LGT SNOW  15   9  76 W32G38    29.82R WCI  -6
6HR MIN TEMP:  15; 6HR MAX TEMP:  18; 6HR PCP: TRACE;

JAMESTOWN      MIX PCPN   9   5  84 NW30G37   29.90R FOG     WCI -14
$$





USA.gov is the U.S. government's official web portal to all federal, state and local government web resources and services.